Location: Unspecified
(0.0000°N, 0.0000°E)
Time: 07:26:05
(UTC+00:00)

Vanguard 2 Rocket - Pass Details

Date: 09 October 2023
Orbit: 552 x 3312 km, 32.9° (Epoch: 06 December)

Event Time Altitude Azimuth Distance (km) Brightness Sun altitude
Rises 11:29:48 0° 320° (NW) 6,248 11.1 82.4°
Reaches altitude 10° 11:35:14 10° 334° (NNW) 5,626 11.0 83.0°
Maximum altitude 11:48:34 24° 22° (NNE) 5,105 11.0 83.7°
Drops below altitude 10° 12:02:59 10° 68° (ENE) 6,153 11.2 82.6°
Sets 12:09:13 0° 81° (E) 6,946 11.3 81.7°
